Location: Berlin
(52.5171°N, 13.3759°E)
Time: 21:58:23
(UTC+01:00)

ISS - Pass Details

Date: 13 January 2018
Orbit: 401 x 407 km, 51.6° (Epoch: 17 January)

Event Time Altitude Azimuth Distance (km) Brightness Sun altitude
Exits shadow 05:34:32 22° 161° (SSE) 929 -1.8 -23.0°
Drops below altitude 10° 05:36:07 10° 141° (SE) 1,462 -0.4 -22.7°
Sets 05:38:19 0° 131° (SE) 2,320 0.9 -22.4°
